Tracking 28520 objects as of 1-Mar-2024
HD Live streaming from Space Station
objects crossing your sky now

CZ-4 DEB

Track CZ-4 DEB now!
10-day predictions


NORAD ID: 37609
Int'l Code: 1990-081CV
Perigee: 825.6 km
Apogee: 921.3 km
Inclination: 98.8 °
Period: 102.3 minutes
Semi major axis: 7244 km
RCS: 0.0032 m2 (small)
Launch date: September 3, 1990
Source: People's Republic of China (PRC)
Launch site: Taiyaun Space Center, China (TSC)

Note: This is SATELLITE DEBRIS
Your satellite tracking list
Your tracking list is empty




NASA's NSSDC Master Catalog

Two Line Element Set (TLE):
1 37609U 90081CV  24059.74102950  .00000411  00000-0  26256-3 0  9991
2 37609  98.8295  42.8364 0066106 294.1960 242.1668 14.07974798 34489
Source of the keplerian elements: AFSPC